Location: Bessat
(45.8735°N, 1.9924°E)
Time: 20:41:07
(UTC+00:00)

ERS-1 Rocket - Pass Details

Date: 11 May 2021
Orbit: 753 x 757 km, 98.4° (Epoch: 21 June)

Event Time Altitude Azimuth Distance (km) Brightness Sun altitude
Exits shadow 20:30:20 15° 116° (ESE) 1,932 4.5 -11.9°
Maximum altitude 20:33:35 30° 65° (ENE) 1,347 4.1 -12.3°
Drops below altitude 10° 20:37:54 10° 6° (N) 2,293 6.0 -12.9°
Sets 20:40:26 0° 356° (N) 3,223 7.0 -13.2°
